Regional Weather Roundup
Issued by NWS Midland/Odessa, TX

Skip options and go directly to product.
Home | Oldest Version | Previous Version | Current Version | All | Text Only | Save Text | Print | Product List | Glossary On

Skip product version selection by date and time.   
743
ASUS44 KMAF 262310
RWRMAF
MIDLAND AREA WEATHER ROUNDUP
NATIONAL WEATHER SERVICE MIDLAND TX
500 PM CST THU FEB 26 2015

...IN SOUTHWEST TEXAS AND SOUTHEAST NEW MEXICO...

CITY           SKY/WX    TMP DP  RH WIND       PRES   REMARKS
ALPINE         CLOUDY    33  29  88 NE10      30.17S WCI  24
ANDREWS        CLOUDY    29  17  60 NE15G22   30.22S WCI  18
ARTESIA        CLOUDY    32  23  69 E12       30.19S WCI  23
BIG SPRING     CLOUDY    31  16  53 NE12G17   30.28F WCI  22
CARLSBAD       CLOUDY    34  24  67 E8        30.19S WCI  27
DRYDEN           N/A     47  28  47 N18G25    30.12S WCI  40
FORT STOCKTON  CLOUDY    35  24  64 NE16      30.18S WCI  25
GUAD PASS      FRZ RAIN  27  26  96 NE35      30.00  VSB 3/4 WCI  10
HOBBS          CLOUDY    28  18  64 NE16G23   30.19F WCI  17
MARFA          SUNNY     39  28  65 NE21      30.07R WCI  29
MIDLAND AIRPK  CLOUDY    32  19  59 NE18G24   30.23F WCI  20
MIDLAND INTL   CLOUDY    31  19  61 NE18      30.21F WCI  19
ODESSA         CLOUDY    31  19  61 NE21      30.20F WCI  18
PECOS          CLOUDY    37  25  61 NE14      30.20F WCI  28
PRESIDIO       FAIR      63  32  32 NE15G26   29.95S
SEMINOLE       CLOUDY    29  16  59 E13       30.23F WCI  18
SNYDER         CLOUDY    29  16  56 N13       30.28S WCI  19
WINK           CLOUDY    35  20  54 E16       30.19F WCI  25
$$
...OTHER STATIONS IN TEXAS...

CITY           SKY/WX    TMP DP  RH WIND       PRES   REMARKS
ABILENE        CLOUDY    29  19  66 N10       30.30S WCI  20
AMARILLO       MOSUNNY   28  10  46 E9        30.24F WCI  19
AUSTIN         CLOUDY    42  32  67 N17       30.22R WCI  34
BROWNSVILLE    SUNNY     64  46  52 NE16G24   30.06R
CORPUS CHRISTI PTSUNNY   60  37  42 E24G31    30.09R
DALLAS FTW     CLOUDY    35  17  47 N21       30.31R WCI  24
DEL RIO        SUNNY     54  32  43 N14G22    30.11R
EL PASO        PTSUNNY   54  28  36 E15G23    29.95F
HOUSTON INT    MOSUNNY   51  36  56 N15       30.18R
LUBBOCK        FLURRIES  27  18  69 NE14      30.24F WCI  16
SAN ANGELO     CLOUDY    31  21  66 NE17      30.27R WCI  19
SAN ANTONIO    PTSUNNY   47  35  63 N15G25    30.17R
WACO           MOSUNNY   37  25  61 N17       30.28R WCI  27
WICHITA FALLS  NOT AVBL
$$
...OTHER LOCATIONS IN NEW MEXICO...

CITY           SKY/WX    TMP DP  RH WIND       PRES   REMARKS
ALAMAGORDO     MOSUNNY   50  27  40 S18G25    29.96F
ALBUQUERQUE    CLOUDY    40  22  48 E28G33    29.93F WCI  29
CANNON AFB     CLOUDY    23  19  86 E10       30.18S WCI  12
CLOVIS         CLOUDY    21  18  86 E13       30.19F WCI   9
HOLLOMAN AFB   MOSUNNY   50  26  39 S22       29.94S
ROSWELL        CLOUDY    33  20  58 E8        30.18S WCI  26
RUIDOSO        SNOW      21  19  93 MISG      30.05F VSB 1/2
SANTA FE       CLOUDY    27  18  69 SE18G25   29.98F WCI  14
TRUTH OR CONSE CLOUDY    56  23  27 S16G24    29.86F
TUCUMCARI      CLOUDY    24  19  81 E12       30.18F WCI  13
$$

USA.gov is the U.S. government's official web portal to all federal, state and local government web resources and services.